アトラス-アフリカーノ彗星

C/2019 F1 ( ATLAS-Africano )

English version
Home page
Updated on May 15, 2024

---------------------------------------------------------------------

・ プロフィール

発見日 2019年3月28日、29日
発見光度 18.3等、18.4等
発見者 Asteroid Terrestrial-Impact Last Alert System (ATLAS) search program, B. M. Africano (Mount Lemmon Survey)

・ 写真集

・ 軌道要素

Epoch 2024 Mar. 31.0 TT = JDT 2460400.5
T 2021 June 22.14686 TT                                 Rudenko
q   3.6078713            (2000.0)            P               Q
z  -0.0004051      Peri.  251.34104     +0.09613948     +0.85660632
 +/-0.0000004      Node    38.66387     -0.27428436     +0.51237490
e   1.0014616      Incl.   54.23486     -0.95683086     -0.06080776
>From 1976 observations 2019 Feb. 8-2024 Jan. 31, mean residual 0".7.

・ 星図

・ 光度変化

        m1 = 8.0 + 5 logΔ + 7.0 log r(t + 150)

---------------------------------------------------------------------

軌道要素はM.P.E.C. 2024-G193に掲載されたものです。
星図はステラナビゲータ Ver.10 (アストロアーツ) で作成したものです。
光度グラフはComet for Windowsで作成したものです。

---------------------------------------------------------------------

Copyright(C) Seiichi Yoshida (comet@aerith.net). All rights reserved.